Showing default

QIANFAN-95, 66037

Orbit data source: Space-Track

QIANFAN-95, 66037 is a Chinese payload satellite in LEO that was launched on Fri, 17 Oct 2025 UTC via a CHANG ZHENG 6A launch vehicle from the Taiyaun Space Center, China (TSC). Payload-class satellites include a variety of spacecraft equipped with specific instruments for various scientific and technological missions. These include communications satellites like Starlink; space stations such as the ISS; scientific satellites like the Hubble; Earth observation satellites from companies like Planet Labs, Umbra, and HawkEye 360; GPS; miniature CubeSats for education and research; and military/defense satellites.

Loading next visibility...
Identifier
66037, 2025-233E
Orbit
LEO
Country
Flag of CNCN / PRC
Related business
Manufacturer
SECM
Mission
Operational Commercial Communications
Bus & Motor
QIANFAN, Unknown motor
Mass
267 kg wet, ~267 kg dry
Launch date (UTC)
2025-10-17 (7 months ago)
Launch vehicle
CHANG ZHENG 6A
Launch site
Taiyaun Space Center, China (TSC)
Object type
Payload
Rocket body
Debris
Shape & HBR
Box + 1 Pan, 14.5 m
Radar Cross Section
13.200 m²

Expand to show TLE details & history
Last TLE update: 8 hours ago

TLE from 8 hours ago
0 QIANFAN-95
1 66037U 25233E   26130.15138751  .00000127  00000-0  17755-3 0  9998
2 66037  89.0024  46.4986 0002263  68.3788 291.7604 13.51003642 28348
Epoch: 2026-05-10T03:37Z
TLE epoch observation values (Epoch: 2026-05-10T03:37:59.880Z)
Latitude
-0.00005°
Longitude
124.04051°
Altitude
1,070.897 km
Speed
7.317 km/s
True Right ascension
03h 05m 59s
True Declination
0° 00' 00"
Sunlit
Object was in daylight at epoch
Visualization orbit readout
Latitude
Unknown
Longitude
Unknown
Altitude
Unknown
Speed
Unknown
Apparent Right ascension
Unknown
Apparent Declination
Unknown
Sunlit
N/A
Visualization observer readout
Local Sidereal Time
19:44:05
Azimuth
Unknown
Elevation
Unknown
Doppler factor
Unknown
Orbital elements
Apogee altitude
1,067.304 km
Perigee altitude
1,063.935 km
Semi-major axis
7,443.756 km
Eccentricity
0.00023
Inclination
89.0024°
RAAN
46.4986°
Arg. of periapsis
68.3788°
True anomaly
291.73631°
Mean anomaly
291.7604°
Eccentric anomaly
291.74836°
Mean motion
3.37952 °/min
Orbital period
106.52 mins
BSTAR
0.00017755
Loading maneuver chart data...
Computing Atmospheric mass density...
Loading historical data...
Loading historical data...
Loading historical data...
Loading historical data...
Loading historical data...
Loading historical data...
Loading historical data...

Documentation

Showing up to 5 results
|